Home > Weather > Ganderkesee > Past weeks

Flag for Germany Past Weather in Ganderkesee, Lower Saxony, Germany — Yesterday and Last 2 Weeks

Now
52 °F

Fog.


Feels Like: 51 °F
Forecast: 54 / 71 °F
Wind: 3 mph from Northeast

Location: Bremen Airport

Current Time: May 27, 2016 at 8:38:21 AM

Latest Report: May 27, 2016 at 8:20 AM


Visibility: 2 mi

Pressure: 30.07 "Hg

Humidity: 94%

Dew Point: 50 °F

Location of GanderkeseeLocation

Past Weather in Ganderkesee — Graph

°F

Ganderkesee Temperature Yesterday

Maximum temperature yesterday: 63 °F (at 1:50 PM)
Minimum temperature yesterday: 48 °F (at 3:20 AM)
Average temperature yesterday: 56 °F

High & Low Weather Summary for the Past Weeks

 TemperatureHumidityPressure
High79 °F (May 22, 1:50 PM)100% (May 16, 4:50 AM)30.07 "Hg (May 16, 4:50 AM)
Low37 °F (May 16, 4:50 AM)31% (May 13, 2:20 PM)29.59 "Hg (May 12, 3:20 PM)
Average56 °F75%29.89 "Hg
* Reported May 12 7:20 AM — May 27 7:20 AM, Ganderkesee, Weather by CustomWeather, © 2016

Note: Actual official high and low records may vary slightly from our data, if they occured in-between our weather recording intervals... More about our weather records

Advertising

Ganderkesee Weather History for the Previous 24 Hours

Scroll right to see more
 ConditionsComfort  
Time TempWeatherWind HumidityBarometerVisibility
7:20 AM
Fri, May 27
52 °FFog.5 mph94%30.07 "Hg1 mi
6:50 AM52 °FFog.2 mph94%30.04 "Hg2 mi
6:20 AM52 °FLow clouds.5 mph94%30.04 "Hg4 mi
5:50 AM52 °FLow clouds.3 mph100%30.04 "Hg4 mi
5:20 AM48 °FFog.No wind100%30.04 "Hg3 mi
4:50 AM46 °FFog.No wind93%30.04 "Hg1 mi
4:20 AM50 °FFog.No wind100%30.04 "Hg4 mi
3:50 AM50 °FFog.No wind100%30.04 "Hg5 mi
3:20 AM52 °FFog.5 mph94%30.04 "HgN/A
2:50 AM52 °FClear.6 mph94%30.04 "Hg10 mi
2:20 AM54 °FClear.2 mph88%30.04 "Hg10 mi
1:50 AM54 °FClear.5 mph94%30.04 "Hg10 mi
1:20 AM54 °FPassing clouds.3 mph94%30.07 "HgN/A
12:50 AM50 °FFog.No wind94%30.07 "HgN/A
12:20 AM48 °FClear.3 mph94%30.07 "Hg10 mi
11:50 PM
Thu, May 26
48 °FClear.5 mph94%30.07 "Hg10 mi
11:20 PM52 °FClear.2 mph94%30.07 "Hg10 mi
10:50 PM55 °FPassing clouds.3 mph82%30.04 "HgN/A
10:20 PM55 °FSunny.5 mph82%30.04 "Hg10 mi
9:50 PM57 °FSunny.6 mph77%30.04 "Hg10 mi
9:20 PM55 °FPassing clouds.6 mph82%30.04 "HgN/A
8:50 PM57 °FPassing clouds.7 mph82%30.04 "HgN/A
8:20 PM59 °FPassing clouds.7 mph77%30.04 "HgN/A
7:50 PM59 °FScattered clouds.7 mph72%30.04 "HgN/A
7:20 PM59 °FPartly sunny.9 mph72%30.04 "HgN/A
6:50 PM61 °FScattered clouds.8 mph72%30.04 "HgN/A
6:20 PM61 °FScattered clouds.8 mph72%30.04 "HgN/A
5:50 PM61 °FScattered clouds.10 mph72%30.04 "HgN/A
5:20 PM61 °FPartly sunny.10 mph77%30.04 "HgN/A
4:50 PM61 °FBroken clouds.10 mph77%30.04 "HgN/A
4:20 PM61 °FBroken clouds.9 mph77%30.04 "HgN/A
3:50 PM63 °FBroken clouds.5 mph68%30.04 "HgN/A
3:20 PM61 °FBroken clouds.7 mph72%30.04 "HgN/A
2:50 PM61 °FBroken clouds.6 mph72%30.04 "HgN/A
2:20 PM61 °FBroken clouds.6 mph72%30.04 "HgN/A
1:50 PM63 °FPartly sunny.6 mph68%30.04 "HgN/A
1:20 PM61 °FPartly sunny.7 mph72%30.04 "HgN/A
12:50 PM61 °FPartly sunny.8 mph72%30.04 "HgN/A
12:20 PM61 °FBroken clouds.7 mph72%30.04 "HgN/A
11:50 AM59 °FBroken clouds.6 mph82%30.04 "HgN/A
11:20 AM59 °FPartly sunny.6 mph77%30.04 "HgN/A
10:50 AM59 °FBroken clouds.5 mph77%30.04 "HgN/A
10:20 AM59 °FBroken clouds.5 mph82%30.04 "HgN/A
9:50 AM57 °FBroken clouds.7 mph88%30.04 "Hg4 mi
9:20 AM57 °FBroken clouds.6 mph88%30.04 "Hg4 mi
8:50 AM55 °FFog.5 mph94%30.04 "Hg3 mi
8:20 AM55 °FFog.3 mph94%30.04 "Hg3 mi
Weather by CustomWeather, © 2016

See weather overviewHow to use our weather pages